Location: San Martino di Castrozza
(46.2667°N, 11.8000°E)
Time: 15:22:56
(UTC+00:00)

Cosmos 2263 - Pass Details

Date: 23 April 2021
Orbit: 829 x 867 km, 70.9° (Epoch: 13 May)

Event Time Altitude Azimuth Distance (km) Brightness Sun altitude
Exits shadow 02:46:57 14° 200° (SSW) 2,236 5.9 -13.9°
Maximum altitude 02:52:01 81° 114° (ESE) 875 4.3 -13.2°
Drops below altitude 10° 02:57:48 10° 28° (NNE) 2,514 7.7 -12.3°
Sets 03:00:17 0° 28° (NNE) 3,458 8.5 -12.0°
